ECHOSTAR 15

Last updated on Sun Apr 12 2026 00:02:52 GMT+0000 (Coordinated Universal Time)

1 36792U 10034A 26101.49711728 .00000001 00000+0 00000+0 0 9993 2 36792 0.0594 75.2506 0002107 284.0079 260.6172 1.00271118 57650
UTC large
Height (km)
Speed (km/s)
/
Latitude / Longitude
Inclination (degrees)
Orbital Period (minutes)
Azimuth
Elevation
Range (km)
Doppler Factor

Next 0 passes for location: London (51.5072 / 0.1276)

Sorry there are no passes over London.
ECHOSTAR 15